LogoCoinalyze
    Ad-Free Version Inicio Mercados Tasas de Financiamiento
    Datos de futuros
    • Datos agregados (Monedas)
    • Gráficos individuales
    • Gráficos globales
    Alertas
    TA
    Bitcoin Ethereum BNB Ripple Tron ZCash Dogecoin Monero Chainlink UNUS SED LEO Cardano Stellar Lumens Bitcoin Cash Litecoin Hedera Cronos Polkadot Ethereum Classic Algorand Cosmos Quant Dash VeChain Bitcoin SV BitTorrent Terra Decred Tezos Iota The Graph THETA Decentraland NEO Chiliz MultiversX Horizen Golem Basic Attention Token Qtum DigiByte 0x Beam RIF Token FTX Token Holo FUNToken Zilliqa Ontology aelf Nano Enjin Coin Ravencoin Mask Network Verge Siacoin Status WINk Waves IoTeX iExec RLC Power Ledger Steem Kyber Network Crystal Lisk Ark WOO Network Ardor IOST WAX Icon Storj Wanchain Loopring Bitcoin Diamond Augur AdEx Bitcoin Gold OmiseGO NEM MonaCoin BitShares Ren Komodo V Systems Nuls Mithril SOLVE EOS Aion Nebulas Maker HedgeTrade Bread Fetch.ai TomoChain Polygon Fantom Waltonchain GXChain Bytom Metaverse ETP MaidSafeCoin QASH
    Ordenar por:
    Más
    • API
    • Patrones de velas
    • Donar
    • Contacto
    • Mapa del Sitio
    • Privacy Policy
    • Disclaimer
    • Theme:
    Español
    • English
    • Français
    • Русский
    • Deutsch
    • Türkçe
    • Nederlands
    • Português (BR)
    • 한국어
    • 简体中文
    • 日本語
     
    Iniciar sesión / Registrar
    Markets/ Pepe/ PEPE a BRL/ PEPEBRL Binance
    Trades
    WL
    Chat
    Estad.
    Noticias
    ⦷
    AAA
    0.00001903 945875.00000000 23:58:49
    0.00001899 78423652.00000000 23:56:21
    0.00001899 156654200.00000000 23:56:21
    0.00001899 17085900.00000000 23:56:21
    0.00001899 125539963.00000000 23:55:51
    0.00001898 3728778.00000000 23:55:44
    0.00001898 9872600.00000000 23:52:45
    0.00001898 28647500.00000000 23:52:45
    0.00001895 60418900.00000000 23:50:30
    0.00001893 26231983.00000000 23:47:56
    0.00001894 14441795.00000000 23:47:56
    0.00001894 528821.00000000 23:47:56
    0.00001894 528821.00000000 23:47:56
    0.00001894 528821.00000000 23:47:56
    0.00001894 528821.00000000 23:47:56
    0.00001894 528821.00000000 23:47:56
    0.00001897 5131803.00000000 23:41:18
    0.00001895 5578020.00000000 23:40:54
    0.00001887 5158999.00000000 23:36:59
    0.00001878 532482.00000000 23:29:02
    0.00001878 532482.00000000 23:29:01
    0.00001878 532482.00000000 23:29:01
    0.00001878 532482.00000000 23:29:01
    0.00001878 532482.00000000 23:29:01
    0.00001878 3094793.00000000 23:29:01
    0.00001878 532482.00000000 23:28:58
    0.00001878 532482.00000000 23:28:57
    0.00001878 532482.00000000 23:28:57
    0.00001878 532482.00000000 23:28:57
    0.00001878 532482.00000000 23:28:57
    0.00001878 14423490.00000000 23:28:57
    0.00001876 1128859.00000000 23:27:00
    0.00001873 11530500.00000000 23:23:18
    0.00001872 6830602.00000000 23:22:49
    0.00001875 118776033.00000000 23:22:28
    0.00001876 60.00000000 23:22:25
    0.00001876 176282900.00000000 23:22:23
    0.00001879 530504.00000000 23:17:05
    0.00001879 530504.00000000 23:17:05
    0.00001880 530504.00000000 23:17:05
    0.00001880 530504.00000000 23:17:05
    0.00001880 530504.00000000 23:17:05
    0.00001880 128621409.00000000 23:17:05
    0.00001879 176535268.00000000 23:17:05
    0.00001878 91021286.00000000 23:17:05
    0.00001876 14420650.00000000 23:13:46
    0.00001876 533050.00000000 23:13:46
    0.00001876 533050.00000000 23:13:46
    0.00001876 533050.00000000 23:13:46
    0.00001876 533050.00000000 23:13:46
    0.00001876 533050.00000000 23:13:46
    0.00001877 5177112.00000000 23:11:14
    0.00001878 68229592.00000000 23:10:32
    0.00001881 14427735.00000000 23:07:43
    0.00001881 531633.00000000 23:07:43
    0.00001881 531633.00000000 23:07:43
    0.00001881 531633.00000000 23:07:43
    0.00001881 531633.00000000 23:07:43
    0.00001881 531633.00000000 23:07:43
    0.00001882 58021427.00000000 22:58:43
    0.00001883 17085900.00000000 22:58:43
    0.00001879 37704561.00000000 22:55:09
    0.00001879 89171644.00000000 22:55:09
    0.00001880 17085900.00000000 22:55:05
    0.00001882 6343250.00000000 22:54:27
    0.00001882 531350.00000000 22:54:27
    0.00001882 531350.00000000 22:54:27
    0.00001882 531350.00000000 22:54:27
    0.00001882 531350.00000000 22:54:27
    0.00001882 531350.00000000 22:54:27
    0.00001886 952773.00000000 22:52:12
    0.00001888 6268756.00000000 22:49:58
    0.00001889 6.00000000 22:49:58
    0.00001889 5293800.00000000 22:48:40
    0.00001889 1100302.00000000 22:42:59
    0.00001888 8728372.00000000 22:42:34
    0.00001888 996740.00000000 22:42:19
    0.00001887 14436190.00000000 22:39:07
    0.00001887 529942.00000000 22:39:07
    0.00001887 529942.00000000 22:39:07
    0.00001887 529942.00000000 22:39:07
    0.00001887 529942.00000000 22:39:07
    0.00001887 529942.00000000 22:39:07
    0.00001889 8092984.00000000 22:36:44
    0.00001887 16847826.00000000 22:36:02
    0.00001887 238074.00000000 22:36:02
    0.00001887 16847826.00000000 22:36:02
    0.00001886 1240516.00000000 22:34:04
    0.00001888 5149052.00000000 22:33:32
    0.00001899 526871.00000000 22:28:18
    0.00001899 526871.00000000 22:28:18
    0.00001899 14451545.00000000 22:28:18
    0.00001899 526871.00000000 22:28:18
    0.00001899 526871.00000000 22:28:18
    0.00001899 526871.00000000 22:28:18
    0.00001899 2681708.00000000 22:27:34
    0.00001900 526415.00000000 22:27:13
    0.00001902 525763.00000000 22:25:12
    0.00001902 525763.00000000 22:25:12
    0.00001902 525763.00000000 22:25:12
    Desconectar
    AAA
    Ayuda
    🙂 🤣 😎 🤗 😛 😉 😜 🤑 🤔 😑 😴 😕 🙃 😲 😇 🙁 😢 😬 😟 😠 🕺 🏃 💪 ✌ 👌 👍 👎 👏 👋 🤝 🍺 🍻 🐋 🐟 🦈 🗽 🚄 ✈ 🛑 🚀 🏦 🌚 ⭐ 🌞 ⚡ 🏆 💰 💲 🔨 ❓ ❗ 💯 🔶 🏁
    ☺
    Iniciar sesión o Registrar y chatea
    24 Horas
    Variación
    +8.49%
    Volumen
    61,421,055,414
    Máx.
    0.00001983
    Mín.
    0.00001738
    7 Días
    Variación
    -4.37%
    Volumen
    396,379,602,944
    Máx.
    0.00002077
    Mín.
    0.00001723
    30 Días
    Variación
    +28.41%
    Volumen
    1,650,102,713,797
    Máx.
    0.00002350
    Mín.
    0.00001325
    DOGE, SHIB, PEPE, or Something Else: Which Meme Coin Can Make History in September? (3 AIs Weigh In)
    "DOGE remains the most likely to record the largest move in dollar terms and lead the entire sector," ChatGPT stated.
    cryptopotato.com
    Sept 3, 2026 00:41
    Pepe price rallies 25% as whale demand and futures interest surge
    Key takeaways Pepe has gained 25% this week, including a combined 22% advance over the previous two days. Seven whale transactions worth more than $1 million each occurred Thursday, the highest...
    coinjournal.net
    Aug 21, 2026 08:41
    PEPE Supply on Exchanges Just Took a Massive Hit – What’s Next?
    A drop in PEPE exchange balances has added to bullish expectations despite muted trader interest.
    cryptopotato.com
    Aug 6, 2026 20:02
    PEPE Exchange Outflows Hit Nearly 2-Year High as Whales Accumulate
    Pepe (PEPE) recorded its largest single-day exchange outflow since November 2024, with 4.54 trillion tokens leaving trading platforms, signaling that holders are moving supply away from immediate...
    beincrypto.com
    Aug 6, 2026 04:57
    Meme Coin Based on White House Shooter Conspiracy Rallies 320%
    $HENRY surged 300% after a 2023 Pepe tweet appeared to name the White House shooter, fueling a viral time-travel meme. The post Meme Coin Based on White House Shooter Conspiracy Rallies 320%...
    beincrypto.com
    Apr 27, 2026 16:11
    PEPE surges 4% as market sentiment improves, eyes Key resistance breakout
    Key takeaways Pepe extends gains on Wednesday, stretching its rally from the 50-day EMA. Derivatives data show heightened retail activity as risk-on sentiment returns to the market. Pepe (PEPE) is...
    coinjournal.net
    Apr 22, 2026 11:44
    Why The PEPE Price Could Stage A 55X Rally To Reach New $0.0001 ATH
    The PEPE price has now started to edge back into bullish conversations after the recent inflows into the crypto market. The last time PEPE’s weekly chart printed the kind of structure now...
    newsbtc.com
    Apr 21, 2026 15:30
    Pepe (PEPE) surges 9%, drawing interest from whales
    Key takeaways PEPE is up 9% in the last 24 hours, making it one of the best performers among the top 50 cryptocurrencies by market cap. The rally comes amid renewed interest from whales and retail...
    coinjournal.net
    Apr 16, 2026 07:40
    Murad Says SPX6900 (SPX) Is Primed for a Rally — Is He Right This Time?
    Crypto influencer Murad Mahmudov claims SPX6900 (SPX) is stabilizing at the same market cap level where Dogecoin (DOGE) and Pepe (PEPE) consolidated before their explosive rallies. The...
    beincrypto.com
    Apr 5, 2026 21:36
    The Shiba Inu Of This Cycle: Analyst Shares Why It Is Better To Buy PEPE Now
    In the bull market cycle of 2021-2022, the Shiba Inu meme coin made waves in a way that changed the face of meme coins forever. This came after Dogecoin’s initial 36,000% rally, and Shiba Inu...
    newsbtc.com
    Apr 4, 2026 07:30
    PEPE Explodes by 18% Amid Altcoin Rally, BTC Tapped $74K: Market Watch
    The frog-themed meme coin is today's biggest gainer, followed by TAO, DOT, and BONK.
    cryptopotato.com
    Mar 16, 2026 10:56
    Should PEPE traders brace for volatility as short squeeze potential builds?
    The memecoin market has seen its collective market capitalization drop by 48% over the past year, and 6.9% over the past month, according to CoinMarketCap. According to Glassnode, the memecoin...
    ambcrypto.com
    Mar 7, 2026 18:00
    Simplemente teclea el comando en el chat. Sustituir nick1 por el apodo real.
    • /ignore nick1 Ignorar un usuario del chat
    • /unignore nick1 Dejar de ignorar un usuario del chat
    • /ignorelist Mostrar usuarios del chat que has ignorado